Location: ?????
(54.9266°N, 38.5527°E)
Time: 13:06:32
(UTC+00:00)

Cosmos 1743 - Pass Details

Date: 14 April 2024
Orbit: 476 x 491 km, 82.5° (Epoch: 17 May)

Event Time Altitude Azimuth Distance (km) Brightness Sun altitude
Rises 00:13:33 0° 339° (NNW) 2,597 6.6 -16.7°
Reaches altitude 10° 00:15:59 10° 324° (NW) 1,706 5.4 -16.4°
Enters shadow 00:18:52 23° 274° (W) 1,101 4.0 -16.1°
